Regional Weather Roundup
Issued by NWS

Home | Current Version | Previous Version | Graphics & Text | Print | Product List | Glossary On
Versions: 1 2 3 4 5 6 7 8 9 10 11 12 13 14 15 16 17 18 19 20 21 22 23 24 25 26 27 28 29 30 31 32 33 34 35 36 37 38 39 40 41 42 43 44 45 46 47 48 49 50
000
ASUS43 KOAX 292302
RWRNE

WEATHER ROUNDUP FOR NEBRASKA
NATIONAL WEATHER SERVICE OMAHA NE
600 PM CDT TUE JUL 29 2014

NOTES: SATELLITE DATA IS BEING USED TO AUGMENT CLOUD COVER ABOVE
       12000 FEET.
       "FAIR" INDICATES FEW OR NO CLOUDS BELOW 12,000 FEET WITH NO
       SIGNIFICANT WEATHER AND/OR OBSTRUCTIONS TO VISIBILITY.

  * THESE STATIONS DO NOT REPORT WEATHER SUCH AS RAIN...SNOW OR FOG.

NEZ001>004-019>022-054>056-300000-
NEBRASKA PANHANDLE

CITY           SKY/WX    TMP DP  RH WIND       PRES   REMARKS
SCOTTSBLUFF    PTSUNNY   74  60  61 NE21G30   30.16F
ALLIANCE       CLOUDY    76  56  49 SE15      30.19R
CHADRON        PTSUNNY   77  55  46 NE13      30.19S
KIMBALL        CLOUDY    77  54  45 SE9       30.17F
SIDNEY         CLOUDY    80  56  43 E13       30.17R
$$

NEZ057>060-069>072-079>082-300000-
SOUTHWEST NEBRASKA

CITY           SKY/WX    TMP DP  RH WIND       PRES   REMARKS
NORTH PLATTE   CLOUDY    78  60  53 E13       30.13F
IMPERIAL       MOSUNNY   84  59  42 E18       30.10F
LEXINGTON      MOSUNNY   78  62  57 E9        30.14F
MCCOOK         MOSUNNY   85  58  39 E17       30.09F
OGALLALA       PTSUNNY   79  60  51 E15G22    30.13F
$$

NEZ005>010-023>029-035>040-094-300000-
NORTH CENTRAL NEBRASKA

CITY           SKY/WX    TMP DP  RH WIND       PRES   REMARKS
VALENTINE      CLOUDY    74  52  46 N9        30.19F
AINSWORTH      CLOUDY    73  55  54 NE3       30.18F
BROKEN BOW     MOSUNNY   79  58  48 E3        30.16F
O`NEILL        CLOUDY    77  51  40 W5        30.17S
ORD            MOSUNNY   77  58  51 E5        30.14F
THEDFORD       PTSUNNY   78  58  49 NE10      30.18F
$$

NEZ041-046>049-061>064-073>077-083>087-300000-
SOUTH CENTRAL NEBRASKA

CITY           SKY/WX    TMP DP  RH WIND       PRES   REMARKS
GRAND ISLAND   MOSUNNY   78  58  49 SE6       30.16F
AURORA         CLOUDY    77  58  51 NE8       30.15F
HASTINGS       MOSUNNY   78  56  46 E8        30.15F
HEBRON         SUNNY     80  54  41 NE5       30.13S
HOLDREGE       MOSUNNY   79  58  49 E8        30.13F
KEARNEY *      MOSUNNY   79  59  50 NE10      30.15F
YORK           MOSUNNY   75  57  53 NE10      30.16S
$$

NEZ011>018-030>034-042>045-300000-
NORTHEAST NEBRASKA

CITY           SKY/WX    TMP DP  RH WIND       PRES   REMARKS
NORFOLK        PTSUNNY   77  53  43 N3        30.15F
ALBION         PTSUNNY   74  55  51 CALM      30.16F
BLAIR          MOSUNNY   74  54  49 N7        30.14F
COLUMBUS *     PTSUNNY   75  55  50 N7        30.15F
FREMONT        MOSUNNY   77  52  41 N5        30.15S
TEKAMAH        MOSUNNY   78  53  41 VRB6      30.13F
WAYNE          MOSUNNY   76  54  46 N8        30.15F
$$

NEZ050>053-065>068-078-088>093-300000-
SOUTHEAST NEBRASKA

CITY           SKY/WX    TMP DP  RH WIND       PRES   REMARKS
LINCOLN        PTSUNNY   80  53  39 N9        30.14F
OMAHA EPPLEY   PTSUNNY   78  54  43 CALM      30.13F
BEATRICE       MOSUNNY   79  58  48 NE5       30.12F
FALLS CITY     SUNNY     81  56  42 N5        30.11F
NEBRASKA CITY  SUNNY     77  55  45 NE8       30.13S
PLATTSMOUTH    SUNNY     76  53  44 N5        30.13F
$$

NEZ044-045-051>053-067-300000-
OMAHA AREA

CITY           SKY/WX    TMP DP  RH WIND       PRES   REMARKS
OMAHA EPPLEY   PTSUNNY   78  54  43 CALM      30.13F
BLAIR          MOSUNNY   74  54  49 N7        30.14F
FREMONT        MOSUNNY   77  52  41 N5        30.15S
MILLARD        MOSUNNY   77  54  44 N6        30.13F
OFFUTT AFB     SUNNY     78  55  45 N5        30.13S
PLATTSMOUTH    SUNNY     76  53  44 N5        30.13F
WAHOO          FAIR      76  54  46 N5        30.14S
$$



USA.gov is the U.S. government's official web portal to all federal, state and local government web resources and services.